Location: *
(41.3833°S, 177.8333°W)
Time: 08:32:53
(UTC+00:00)

Cosmos 2333 - Pass Details

Date: 01 April 2020
Orbit: 831 x 865 km, 70.9° (Epoch: 03 June)

Event Time Altitude Azimuth Distance (km) Brightness Sun altitude
Exits shadow 16:39:46 - 340° (NNW) 3,230 7.0 -17.3°
Reaches altitude 10° 16:41:45 10° 341° (NNW) 2,476 6.4 -17.0°
Maximum altitude 16:47:27 84° 68° (ENE) 874 4.3 -15.9°
Drops below altitude 10° 16:53:17 10° 155° (SSE) 2,528 7.1 -14.8°
Sets 16:55:47 0° 155° (SSE) 3,475 7.9 -14.3°
